ST5-C

Satellite information

Favourite Embed

Satellite Type and Status

PAYLOADIN ORBIT

Key statistics

Satellite ST5-C at a glance.

Uptime

7153

Days in orbit

Revolutions

≈ 13.8

Per day

Orbit

SSO

Sun Synchronous Orbit

Inclination

105.5

Latest

Satellite identification and parameters

Extended collection of information and parameters for ST5-C.

Object identification

Identified? True

Debris? False

Object name: ST5-C

International designator: 2006-008C

Object number (NORAD): 28982

Object ID (CCSDS): 28982

Country: UNITED STATES OF AMERICA (US)

Current information (Y/N): Y

RCS size: MEDIUM

Orbital parameters

Period: 104.053 minutes

Inclination: 105.4889 deg

SMA: 7328.19 km

Apoapsis: 1638.725 km

Periapsis: 261.386 km

RAAN: 322.6292 deg

Eccentricy: 0.0939754

Argument of periapsis: 52.8639 deg

Mean anomaly: 315.4664 deg

Mean motion: 13.83909443 rev/day

Mean motion (dot): 0.00093462 rev/day2

B* drag term: 0.0012402666 1/REarth

Two-line elements (TLE)

Creation date: Oct. 21, 2025, 3:26 a.m.

Reference frame: TEME

Reference center: EARTH

Epoch: Oct. 20, 2025, 9:25 p.m. UTC

TLE line 0: 0 ST5-C

TLE line 1: 1 28982U 06008C 25293.89245539 .00093462 54028-5 12403-2 0 9999

TLE line 2: 2 28982 105.4889 322.6292 0939754 52.8639 315.4664 13.83909443522385

Live tracking on map

Real-time ground track for satellite ST5-C.

In-orbit conjunctions

There are no conjunctions computed for ST5-C, at the moment. Check back to stay up to date, as we update our databases every day.

Go to all conjunctions

Associated space launch

NASA's three micro-sats were launched to test and validate new technologies for future science missions. ST5's objective was to demonstrate and flight qualify several innovative technologies and concepts for application to future space missions.

ST5-C was lifted into orbit during the mission ‘Pegasus XL | ST-5 FWD’, on board a Pegasus XL space rocket.

The launch took place on March 22, 2006, 2:03 p.m. from Vandenberg Space Force Base.

For more information about the launch, click the button.

Launch to space Pegasus XL | ST-5 FWD
Pegasus XL | ST-5 FWD

Agency: N/A

Status: Launch Successful

Launch date: March 22, 2006, 2:03 p.m. UTC

Rocket: Pegasus XL

Launch pad: Vandenberg Space Force Base

Location: Air launch to orbit

...

Latest news about this satellite

There are no fresh news available about this satellite. Check back as we update our databases every day.


Newsletter sign-up

Weekly statistics, charts and insights to help you stay on top of the space industry.